Powrót do katalogu

COSMOS 839 DEB

AktywnyUNKNOWN
NORAD 10438·DEBRIS·🇷🇺 Russia

Wystrzelony Jul 8, 1976 z Plesetsk Cosmodrome

Loading…

Następne Przeloty (najbliższe 24 godziny)

TLE

ŚwieżeSource: Space-Track

Epoka: Sep 13, 2026, 12:17 UTC

1 10438U 76067P   26256.51204330 -.00000385  00000-0 -19455-2 0  9995
2 10438  65.9607  48.2262 0646188 349.6954  67.6689 12.09756425214323

Śledź COSMOS 839 DEB w czasie rzeczywistym z AllMySat

Download on the App Store